FW2595 Weather Reports


time (UTC)temp
C
wind
direction
speed
KPH
gust
KPH
rain 1hr
cm
rain 24hr
cm
rain mn
cm
humidity
%
barometer
mb
20260507030039 16 299 1.6 6.4 0.00 0.00 0.00 83 1017.0
20260507024537 16 248 0.0 3.2 0.00 0.00 0.00 82 1016.8
20260507023138 16 294 1.6 11.3 0.00 0.00 0.00 82 1016.6
20260507021540 17 248 0.0 9.7 0.00 0.00 0.00 81 1016.5
20260507020036 17 326 1.6 11.3 0.00 0.00 0.00 80 1016.6
20260507014534 17 234 3.2 11.3 0.00 0.00 0.00 77 1016.7
20260507013033 20 286 1.6 12.9 0.00 0.00 0.00 75 1016.7
20260507011538 19 321 1.6 12.9 0.00 0.00 0.00 76 1016.7
20260507010048 19 153 1.6 14.5 0.00 0.00 0.00 74 1016.7
20260507004535 20 275 3.2 11.3 0.00 0.00 0.00 74 1016.8
20260507003032 20 270 3.2 14.5 0.00 0.00 0.00 74 1016.7
20260507001530 20 286 4.8 16.1 0.00 0.00 0.00 74 1016.6
20260507000029 20 224 4.8 19.3 0.00 0.00 0.00 73 1016.7
20260506234531 20 282 1.6 9.7 0.00 0.00 0.00 72 1016.8
20260506233027 21 282 1.6 14.5 0.00 0.00 0.00 71 1016.9
20260506231525 20 250 3.2 14.5 0.00 0.00 0.00 71 1016.9
20260506230027 21 200 1.6 16.1 0.00 0.00 0.00 71 1017.1
20260506224522 20 296 3.2 16.1 0.00 0.00 0.00 72 1017.3
20260506223021 20 243 6.4 16.1 0.00 0.00 0.00 71 1017.5
20260506221520 20 258 6.4 19.3 0.00 0.00 0.00 71 1017.7
20260506220025 20 155 4.8 19.3 0.00 0.00 0.00 70 1017.7
20260506214517 21 257 3.2 24.1 0.00 0.00 0.00 69 1018.1
20260506213016 21 331 3.2 12.9 0.00 0.00 0.00 68 1018.2
20260506211514 21 229 4.8 14.5 0.00 0.00 0.00 69 1018.3
20260506210014 21 312 3.2 16.1 0.00 0.00 0.00 67 1018.3
20260506204512 21 150 3.2 12.9 0.00 0.00 0.00 68 1018.3
20260506203012 21 254 1.6 16.1 0.00 0.00 0.00 70 1018.7
20260506201525 21 238 3.2 16.1 0.00 0.00 0.00 68 1018.9
20260506200006 20 209 3.2 16.1 0.00 0.00 0.00 69 1019.0
20260506194506 20 180 3.2 12.9 0.00 0.00 0.00 69 1019.2
20260506193116 20 275 0.0 14.5 0.00 0.00 0.00 70 1019.3
20260506191613 19 238 4.8 16.1 0.00 0.00 0.00 71 1019.4
20260506190055 18 248 4.8 16.1 0.00 0.00 0.00 71 1019.3
20260506184605 18 234 4.8 16.1 0.00 0.00 0.00 72 1019.5
20260506183048 18 229 4.8 12.9 0.00 0.00 0.00 73 1019.6
20260506181546 18 225 3.2 12.9 0.00 0.00 0.00 75 1019.7
20260506180043 17 243 4.8 12.9 0.00 0.00 0.00 77 1019.7
20260506174541 17 223 3.2 9.7 0.00 0.00 0.00 77 1019.6
20260506173046 17 219 3.2 11.3 0.00 0.00 0.00 78 1019.7
20260506171554 17 256 1.6 8.0 0.00 0.00 0.00 77 1019.7
20260506170043 16 246 1.6 8.0 0.00 0.00 0.00 78 1019.7
20260506164539 17 200 3.2 8.0 0.00 0.00 0.00 77 1019.6
20260506163037 16 209 0.0 8.0 0.00 0.00 0.00 79 1019.8
20260506161536 16 211 0.0 4.8 0.00 0.00 0.00 79 1019.8
20260506160032 16 248 1.6 6.4 0.00 0.00 0.00 81 1019.9
20260506154530 15 179 1.6 6.4 0.00 0.00 0.00 83 1019.9
20260506153028 15 218 0.0 3.2 0.00 0.00 0.00 84 1019.8
20260506151527 15 161 0.0 3.2 0.00 0.00 0.00 85 1019.8
20260506150027 15 144 0.0 0.0 0.00 0.00 0.00 87 1019.8
20260506144519 14 167 0.0 0.0 0.00 0.00 0.00 90 1019.9
20260506143018 13 154 0.0 0.0 0.00 0.00 0.00 90 1019.9
20260506141514 13 355 0.0 1.6 0.00 0.00 0.00 90 1019.8
20260506140018 12 355 0.0 1.6 0.00 0.00 0.00 90 1019.6
20260506134512 12 33 0.0 4.8 0.00 0.00 0.00 91 1019.4
20260506133015 12 15 0.0 0.0 0.00 0.00 0.00 91 1019.3
20260506131510 12 339 0.0 0.0 0.00 0.00 0.00 91 1019.1
20260506130009 12 338 0.0 0.0 0.00 0.00 0.00 91 1019.2
20260506124507 12 32 0.0 0.0 0.00 0.00 0.00 92 1019.0
20260506123007 12 332 0.0 0.0 0.00 0.00 0.00 92 1019.0
20260506121603 12 332 0.0 0.0 0.00 0.00 0.00 92 1018.9
20260506120003 12 330 0.0 0.0 0.00 0.00 0.00 92 1018.7
20260506114503 12 343 0.0 0.0 0.00 0.00 0.00 92 1018.6
20260506113101 12 343 0.0 0.0 0.00 0.00 0.00 92 1018.7
20260506113001 12 342 0.0 0.0 0.00 0.00 0.00 92 1018.6
20260506111600 12 342 0.0 0.0 0.00 0.00 0.00 92 1018.6
20260506110100 12 342 0.0 0.0 0.00 0.00 0.00 92 1018.5
20260506104606 12 11 0.0 0.0 0.00 0.00 0.00 92 1018.4
20260506103100 12 11 0.0 0.0 0.00 0.00 0.00 92 1018.4
20260506101558 11 11 0.0 0.0 0.00 0.00 0.00 93 1018.5
20260506100111 11 11 0.0 0.0 0.00 0.00 0.00 92 1018.6
20260506094556 11 10 0.0 1.6 0.00 0.00 0.00 92 1018.5
20260506093058 11 349 0.0 0.0 0.00 0.00 0.00 92 1018.7
20260506091556 11 231 0.0 0.0 0.00 0.00 0.00 92 1018.5
20260506090053 11 229 0.0 0.0 0.00 0.00 0.00 92 1018.4
20260506084550 11 229 0.0 0.0 0.00 0.00 0.00 91 1018.4
20260506083050 11 229 0.0 0.0 0.00 0.00 0.00 90 1018.4
20260506081549 12 229 0.0 0.0 0.00 0.00 0.00 90 1018.4
20260506073039 13 229 0.0 0.0 0.00 0.00 0.00 89 1018.1
20260506071538 13 229 0.0 0.0 0.00 0.00 0.00 88 1018.1
20260506061532 13 229 0.0 0.0 0.00 0.00 0.00 87 1017.8
20260506044530 14 281 0.0 0.0 0.00 0.00 0.00 85 1017.2
20260506043025 14 281 0.0 0.0 0.00 0.00 0.00 85 1017.1
20260506041523 14 275 0.0 0.0 0.00 0.00 0.00 85 1017.1
20260506040020 14 275 0.0 1.6 0.00 0.00 0.00 84 1016.8
20260506034520 14 281 0.0 0.0 0.00 0.00 0.00 84 1016.6
20260506033021 14 285 0.0 3.2 0.00 0.00 0.00 84 1016.4
20260506031528 15 277 0.0 0.0 0.00 0.00 0.00 83 1016.2